Retour au catalogue

STARLINK-34814

ActifCommunicationsVLEO
NORAD 65100·PAYLOAD·🇺🇸 United States

Lancé Aug 4, 2025 depuis Cape Canaveral Space Force Station

Loading…

Prochains Passages (prochaines 24 heures)

TLE

FraisSource: CelesTrak SupGP

Époque: Sep 15, 2026, 03:49 UTC

1 65100C 25167Y   26258.15951389 -.00063565  00000+0 -18782-2 0  2589
2 65100  53.1577 222.5623 0001326  86.4363 334.1266 15.34419178    15

Suivez STARLINK-34814 en temps réel avec AllMySat

Download on the App Store